Time,TemperatureF,DewpointF,PressureIn,WindDirection,WindDirectionDegrees,WindSpeedMPH,WindSpeedGustMPH,Humidity,HourlyPrecipIn,Conditions,Clouds,dailyrainin,SoftwareType,DateUTC
2013-02-14 00:01:00,46.0,-99.9,30.50,SSW,204,4.0,6.0,-999,-99.99,,,-99.99,,2013-02-14 08:01:00,
2013-02-14 00:11:00,46.0,-99.9,30.51,SSW,203,6.0,9.0,-999,-99.99,,,-99.99,,2013-02-14 08:11:00,
2013-02-14 00:22:00,46.0,-99.9,30.51,SSW,196,6.0,7.0,-999,-99.99,,,-99.99,,2013-02-14 08:22:00,
2013-02-14 00:32:00,46.0,-99.9,30.51,SSW,199,3.0,8.0,-999,-99.99,,,-99.99,,2013-02-14 08:32:00,
2013-02-14 00:43:00,46.0,-99.9,30.51,SSW,197,4.0,6.0,-999,-99.99,,,-99.99,,2013-02-14 08:43:00,
2013-02-14 00:52:00,46.0,-99.9,30.51,SSE,167,2.0,5.0,-999,-99.99,,,-99.99,,2013-02-14 08:52:00,
2013-02-14 01:02:00,46.0,-99.9,30.52,South,171,3.0,8.0,-999,-99.99,,,-99.99,,2013-02-14 09:02:00,
2013-02-14 01:11:00,46.0,-99.9,30.52,South,190,6.0,9.0,-999,-99.99,,,-99.99,,2013-02-14 09:11:00,
2013-02-14 01:21:00,46.0,-99.9,30.52,South,189,6.0,9.0,-999,-99.99,,,-99.99,,2013-02-14 09:21:00,
2013-02-14 01:32:00,46.0,-99.9,30.52,South,189,4.0,6.0,-999,-99.99,,,-99.99,,2013-02-14 09:32:00,
2013-02-14 01:42:00,46.0,-99.9,30.51,SSE,168,6.0,9.0,-999,-99.99,,,-99.99,,2013-02-14 09:42:00,
2013-02-14 01:52:00,46.0,-99.9,30.52,South,183,5.0,8.0,-999,-99.99,,,-99.99,,2013-02-14 09:52:00,
2013-02-14 02:02:00,45.0,-99.9,30.52,South,176,4.0,10.0,-999,-99.99,,,-99.99,,2013-02-14 10:02:00,
2013-02-14 02:11:00,45.0,-99.9,30.52,South,180,6.0,9.0,-999,-99.99,,,-99.99,,2013-02-14 10:11:00,
2013-02-14 02:22:00,45.0,-99.9,30.52,South,176,5.0,10.0,-999,-99.99,,,-99.99,,2013-02-14 10:22:00,
2013-02-14 02:32:00,45.0,-99.9,30.51,South,185,5.0,9.0,-999,-99.99,,,-99.99,,2013-02-14 10:32:00,
2013-02-14 02:42:00,45.0,-99.9,30.51,South,174,6.0,8.0,-999,-99.99,,,-99.99,,2013-02-14 10:42:00,
2013-02-14 02:52:00,45.0,-99.9,30.51,South,181,5.0,9.0,-999,-99.99,,,-99.99,,2013-02-14 10:52:00,
2013-02-14 03:02:00,45.0,-99.9,30.52,South,174,4.0,7.0,-999,-99.99,,,-99.99,,2013-02-14 11:02:00,
2013-02-14 03:11:00,45.0,-99.9,30.52,South,185,5.0,10.0,-999,-99.99,,,-99.99,,2013-02-14 11:11:00,
2013-02-14 03:22:00,45.0,-99.9,30.52,South,181,4.0,11.0,-999,-99.99,,,-99.99,,2013-02-14 11:22:00,
2013-02-14 03:32:00,45.0,-99.9,30.52,South,178,5.0,7.0,-999,-99.99,,,-99.99,,2013-02-14 11:32:00,
2013-02-14 03:42:00,45.0,-99.9,30.51,SSW,205,7.0,10.0,-999,-99.99,,,-99.99,,2013-02-14 11:42:00,
2013-02-14 03:52:00,45.0,-99.9,30.51,South,184,4.0,9.0,-999,-99.99,,,-99.99,,2013-02-14 11:52:00,
2013-02-14 04:02:00,45.0,-99.9,30.50,South,173,4.0,7.0,-999,-99.99,,,-99.99,,2013-02-14 12:02:00,
2013-02-14 04:12:00,45.0,-99.9,30.51,South,171,4.0,9.0,-999,-99.99,,,-99.99,,2013-02-14 12:12:00,
2013-02-14 04:22:00,45.0,-99.9,30.51,South,185,4.0,9.0,-999,-99.99,,,-99.99,,2013-02-14 12:22:00,
2013-02-14 04:32:00,45.0,-99.9,30.51,South,182,5.0,8.0,-999,-99.99,,,-99.99,,2013-02-14 12:32:00,
2013-02-14 04:42:00,45.0,-99.9,30.51,South,175,3.0,6.0,-999,-99.99,,,-99.99,,2013-02-14 12:42:00,
2013-02-14 04:53:00,45.0,-99.9,30.51,SSE,160,4.0,6.0,-999,-99.99,,,-99.99,,2013-02-14 12:53:00,
2013-02-14 05:02:00,45.0,-99.9,30.51,SSE,160,6.0,8.0,-999,-99.99,,,-99.99,,2013-02-14 13:02:00,
2013-02-14 05:11:00,44.0,-99.9,30.51,SE,133,7.0,9.0,-999,-99.99,,,-99.99,,2013-02-14 13:11:00,
2013-02-14 05:21:00,44.0,-99.9,30.52,SSE,150,4.0,7.0,-999,-99.99,,,-99.99,,2013-02-14 13:21:00,
2013-02-14 05:32:00,44.0,-99.9,30.51,SSE,151,6.0,9.0,-999,-99.99,,,-99.99,,2013-02-14 13:32:00,
2013-02-14 05:42:00,44.0,-99.9,30.52,SSE,153,5.0,8.0,-999,-99.99,,,-99.99,,2013-02-14 13:42:00,
2013-02-14 05:52:00,44.0,-99.9,30.53,SSE,156,4.0,8.0,-999,-99.99,,,-99.99,,2013-02-14 13:52:00,
2013-02-14 06:01:00,44.0,-99.9,30.53,SE,131,4.0,6.0,-999,-99.99,,,-99.99,,2013-02-14 14:01:00,
2013-02-14 06:11:00,44.0,-99.9,30.53,SSE,147,4.0,6.0,-999,-99.99,,,-99.99,,2013-02-14 14:11:00,
2013-02-14 06:22:00,45.0,-99.9,30.53,SSE,157,4.0,7.0,-999,-99.99,,,-99.99,,2013-02-14 14:22:00,
2013-02-14 06:32:00,45.0,-99.9,30.53,South,170,3.0,5.0,-999,-99.99,,,-99.99,,2013-02-14 14:32:00,
2013-02-14 06:42:00,44.0,-99.9,30.53,SSE,147,5.0,9.0,-999,-99.99,,,-99.99,,2013-02-14 14:42:00,
2013-02-14 06:52:00,45.0,-99.9,30.53,SSE,151,4.0,8.0,-999,-99.99,,,-99.99,,2013-02-14 14:52:00,
2013-02-14 07:02:00,45.0,-99.9,30.53,SE,137,5.0,7.0,-999,-99.99,,,-99.99,,2013-02-14 15:02:00,
2013-02-14 07:11:00,44.0,-99.9,30.53,SE,136,5.0,8.0,-999,-99.99,,,-99.99,,2013-02-14 15:11:00,
2013-02-14 07:22:00,44.0,-99.9,30.52,SSE,156,5.0,8.0,-999,-99.99,,,-99.99,,2013-02-14 15:22:00,
2013-02-14 07:32:00,44.0,-99.9,30.53,SE,144,8.0,11.0,-999,-99.99,,,-99.99,,2013-02-14 15:32:00,
2013-02-14 07:42:00,44.0,-99.9,30.53,SE,137,5.0,9.0,-999,-99.99,,,-99.99,,2013-02-14 15:42:00,
2013-02-14 07:52:00,45.0,-99.9,30.53,SE,142,6.0,9.0,-999,-99.99,,,-99.99,,2013-02-14 15:52:00,
2013-02-14 08:02:00,44.0,-99.9,30.53,SE,126,7.0,9.0,-999,-99.99,,,-99.99,,2013-02-14 16:02:00,
2013-02-14 08:11:00,44.0,-99.9,30.54,SE,136,6.0,9.0,-999,-99.99,,,-99.99,,2013-02-14 16:11:00,
2013-02-14 08:22:00,45.0,-99.9,30.54,SE,144,6.0,7.0,-999,-99.99,,,-99.99,,2013-02-14 16:22:00,
2013-02-14 08:32:00,44.0,-99.9,30.54,SE,132,5.0,8.0,-999,-99.99,,,-99.99,,2013-02-14 16:32:00,
2013-02-14 08:42:00,44.0,-99.9,30.55,SE,140,6.0,9.0,-999,-99.99,,,-99.99,,2013-02-14 16:42:00,
2013-02-14 08:52:00,45.0,-99.9,30.55,SE,134,6.0,8.0,-999,-99.99,,,-99.99,,2013-02-14 16:52:00,
2013-02-14 09:01:00,45.0,-99.9,30.55,SSE,152,6.0,8.0,-999,-99.99,,,-99.99,,2013-02-14 17:01:00,
2013-02-14 09:11:00,45.0,-99.9,30.55,SE,140,6.0,9.0,-999,-99.99,,,-99.99,,2013-02-14 17:11:00,
2013-02-14 09:22:00,45.0,-99.9,30.55,SE,138,5.0,8.0,-999,-99.99,,,-99.99,,2013-02-14 17:22:00,
2013-02-14 09:32:00,45.0,-99.9,30.56,ESE,122,4.0,10.0,-999,-99.99,,,-99.99,,2013-02-14 17:32:00,
2013-02-14 09:42:00,45.0,-99.9,30.55,SE,129,5.0,9.0,-999,-99.99,,,-99.99,,2013-02-14 17:42:00,
2013-02-14 09:52:00,45.0,-99.9,30.56,SE,142,6.0,8.0,-999,-99.99,,,-99.99,,2013-02-14 17:52:00,
2013-02-14 10:02:00,45.0,-99.9,30.56,SE,127,5.0,8.0,-999,-99.99,,,-99.99,,2013-02-14 18:02:00,
2013-02-14 10:11:00,45.0,-99.9,30.55,SSE,154,4.0,7.0,-999,-99.99,,,-99.99,,2013-02-14 18:11:00,
2013-02-14 10:23:00,45.0,-99.9,30.55,SSE,148,5.0,8.0,-999,-99.99,,,-99.99,,2013-02-14 18:23:00,
2013-02-14 10:32:00,45.0,-99.9,30.55,SE,139,6.0,9.0,-999,-99.99,,,-99.99,,2013-02-14 18:32:00,
2013-02-14 10:42:00,45.0,-99.9,30.55,SE,133,5.0,9.0,-999,-99.99,,,-99.99,,2013-02-14 18:42:00,
2013-02-14 10:52:00,45.0,-99.9,30.55,SE,141,7.0,10.0,-999,-99.99,,,-99.99,,2013-02-14 18:52:00,
2013-02-14 11:02:00,45.0,-99.9,30.56,SE,143,5.0,10.0,-999,-99.99,,,-99.99,,2013-02-14 19:02:00,
2013-02-14 11:11:00,45.0,-99.9,30.56,SE,141,5.0,8.0,-999,-99.99,,,-99.99,,2013-02-14 19:11:00,
2013-02-14 11:22:00,46.0,-99.9,30.56,SSE,148,4.0,10.0,-999,-99.99,,,-99.99,,2013-02-14 19:22:00,
2013-02-14 11:32:00,46.0,-99.9,30.56,SSE,160,5.0,11.0,-999,-99.99,,,-99.99,,2013-02-14 19:32:00,
2013-02-14 11:42:00,47.0,-99.9,30.55,SSE,149,6.0,9.0,-999,-99.99,,,-99.99,,2013-02-14 19:42:00,
2013-02-14 11:52:00,47.0,-99.9,30.55,SE,144,5.0,9.0,-999,-99.99,,,-99.99,,2013-02-14 19:52:00,
2013-02-14 12:01:00,47.0,-99.9,30.56,South,177,5.0,11.0,-999,-99.99,,,-99.99,,2013-02-14 20:01:00,
2013-02-14 12:11:00,48.0,-99.9,30.56,SSE,164,5.0,8.0,-999,-99.99,,,-99.99,,2013-02-14 20:11:00,
2013-02-14 12:22:00,48.0,-99.9,30.55,South,182,4.0,8.0,-999,-99.99,,,-99.99,,2013-02-14 20:22:00,
2013-02-14 12:32:00,48.0,-99.9,30.55,SW,216,4.0,9.0,-999,-99.99,,,-99.99,,2013-02-14 20:32:00,
2013-02-14 12:42:00,48.0,-99.9,30.55,SSE,147,3.0,5.0,-999,-99.99,,,-99.99,,2013-02-14 20:42:00,
2013-02-14 12:52:00,48.0,-99.9,30.56,SSE,147,3.0,6.0,-999,-99.99,,,-99.99,,2013-02-14 20:52:00,
2013-02-14 13:02:00,48.0,-99.9,30.56,SSE,164,3.0,6.0,-999,-99.99,,,-99.99,,2013-02-14 21:02:00,
2013-02-14 13:11:00,48.0,-99.9,30.56,South,190,2.0,3.0,-999,-99.99,,,-99.99,,2013-02-14 21:11:00,
2013-02-14 13:22:00,48.0,-99.9,30.56,SW,220,3.0,4.0,-999,-99.99,,,-99.99,,2013-02-14 21:22:00,
2013-02-14 13:32:00,48.0,-99.9,30.56,SW,227,2.0,3.0,-999,-99.99,,,-99.99,,2013-02-14 21:32:00,
2013-02-14 13:42:00,48.0,-99.9,30.56,SSW,207,4.0,5.0,-999,-99.99,,,-99.99,,2013-02-14 21:42:00,
2013-02-14 13:52:00,48.0,-99.9,30.56,WSW,239,4.0,5.0,-999,-99.99,,,-99.99,,2013-02-14 21:52:00,
2013-02-14 14:02:00,48.0,-99.9,30.56,SW,215,1.0,4.0,-999,-99.99,,,-99.99,,2013-02-14 22:02:00,
2013-02-14 14:11:00,48.0,-99.9,30.56,SE,134,3.0,5.0,-999,-99.99,,,-99.99,,2013-02-14 22:11:00,
2013-02-14 14:21:00,48.0,-99.9,30.55,SSE,168,2.0,4.0,-999,-99.99,,,-99.99,,2013-02-14 22:21:00,
2013-02-14 14:32:00,48.0,-99.9,30.55,SSW,209,3.0,3.0,-999,-99.99,,,-99.99,,2013-02-14 22:32:00,
2013-02-14 14:42:00,48.0,-99.9,30.55,SW,219,3.0,4.0,-999,-99.99,,,-99.99,,2013-02-14 22:42:00,
2013-02-14 14:52:00,48.0,-99.9,30.56,SW,219,3.0,5.0,-999,-99.99,,,-99.99,,2013-02-14 22:52:00,
2013-02-14 15:01:00,48.0,-99.9,30.55,SW,220,3.0,4.0,-999,-99.99,,,-99.99,,2013-02-14 23:01:00,
2013-02-14 15:11:00,49.0,-99.9,30.55,WSW,248,1.0,4.0,-999,-99.99,,,-99.99,,2013-02-14 23:11:00,
2013-02-14 15:22:00,49.0,-99.9,30.55,South,172,2.0,4.0,-999,-99.99,,,-99.99,,2013-02-14 23:22:00,
2013-02-14 15:32:00,49.0,-99.9,30.55,SW,221,5.0,7.0,-999,-99.99,,,-99.99,,2013-02-14 23:32:00,
2013-02-14 15:42:00,49.0,-99.9,30.55,SW,223,3.0,5.0,-999,-99.99,,,-99.99,,2013-02-14 23:42:00,
2013-02-14 15:52:00,49.0,-99.9,30.55,SSW,212,3.0,4.0,-999,-99.99,,,-99.99,,2013-02-14 23:52:00,
2013-02-14 16:02:00,49.0,-99.9,30.55,West,264,2.0,3.0,-999,-99.99,,,-99.99,,2013-02-15 00:02:00,
2013-02-14 16:11:00,48.0,-99.9,30.55,NNW,327,6.0,6.0,-999,-99.99,,,-99.99,,2013-02-15 00:11:00,
2013-02-14 16:22:00,47.0,-99.9,30.55,NW,326,5.0,6.0,-999,-99.99,,,-99.99,,2013-02-15 00:22:00,
2013-02-14 16:32:00,47.0,-99.9,30.55,NW,326,4.0,6.0,-999,-99.99,,,-99.99,,2013-02-15 00:32:00,
2013-02-14 16:42:00,48.0,-99.9,30.55,NNW,344,3.0,4.0,-999,-99.99,,,-99.99,,2013-02-15 00:42:00,
2013-02-14 16:52:00,48.0,-99.9,30.55,NNW,333,2.0,4.0,-999,-99.99,,,-99.99,,2013-02-15 00:52:00,
2013-02-14 17:02:00,48.0,-99.9,30.55,NNW,336,1.0,2.0,-999,-99.99,,,-99.99,,2013-02-15 01:02:00,
2013-02-14 17:11:00,47.0,-99.9,30.55,NW,326,4.0,5.0,-999,-99.99,,,-99.99,,2013-02-15 01:11:00,
2013-02-14 17:21:00,47.0,-99.9,30.55,NNW,328,3.0,4.0,-999,-99.99,,,-99.99,,2013-02-15 01:21:00,
2013-02-14 17:32:00,47.0,-99.9,30.55,NW,312,1.0,5.0,-999,-99.99,,,-99.99,,2013-02-15 01:32:00,
2013-02-14 17:42:00,47.0,-99.9,30.54,NE,46,-999.0,1.0,-999,-99.99,,,-99.99,,2013-02-15 01:42:00,
2013-02-14 17:52:00,47.0,-99.9,30.54,NE,35,0.0,1.0,-999,-99.99,,,-99.99,,2013-02-15 01:52:00,
2013-02-14 18:01:00,47.0,-99.9,30.55,NW,320,6.0,6.0,-999,-99.99,,,-99.99,,2013-02-15 02:01:00,
2013-02-14 18:11:00,47.0,-99.9,30.55,NW,313,5.0,6.0,-999,-99.99,,,-99.99,,2013-02-15 02:11:00,
2013-02-14 18:21:00,47.0,-99.9,30.55,NW,318,5.0,6.0,-999,-99.99,,,-99.99,,2013-02-15 02:21:00,
2013-02-14 18:32:00,47.0,-99.9,30.55,NW,319,3.0,5.0,-999,-99.99,,,-99.99,,2013-02-15 02:32:00,
2013-02-14 18:42:00,47.0,-99.9,30.56,North,357,0.0,3.0,-999,-99.99,,,-99.99,,2013-02-15 02:42:00,
2013-02-14 18:52:00,47.0,-99.9,30.56,NW,308,2.0,3.0,-999,-99.99,,,-99.99,,2013-02-15 02:52:00,
2013-02-14 19:02:00,47.0,-99.9,30.56,WNW,294,5.0,6.0,-999,-99.99,,,-99.99,,2013-02-15 03:02:00,
2013-02-14 19:11:00,47.0,-99.9,30.56,WNW,300,5.0,6.0,-999,-99.99,,,-99.99,,2013-02-15 03:11:00,
2013-02-14 19:22:00,47.0,-99.9,30.56,WNW,303,5.0,6.0,-999,-99.99,,,-99.99,,2013-02-15 03:22:00,
2013-02-14 19:32:00,47.0,-99.9,30.56,WNW,285,3.0,6.0,-999,-99.99,,,-99.99,,2013-02-15 03:32:00,
2013-02-14 19:42:00,47.0,-99.9,30.56,NW,316,3.0,5.0,-999,-99.99,,,-99.99,,2013-02-15 03:42:00,
2013-02-14 19:52:00,47.0,-99.9,30.56,NW,313,5.0,6.0,-999,-99.99,,,-99.99,,2013-02-15 03:52:00,
2013-02-14 20:02:00,47.0,-99.9,30.56,NW,323,4.0,5.0,-999,-99.99,,,-99.99,,2013-02-15 04:02:00,
2013-02-14 20:11:00,48.0,-99.9,30.56,WNW,296,1.0,4.0,-999,-99.99,,,-99.99,,2013-02-15 04:11:00,
2013-02-14 20:22:00,48.0,-99.9,30.56,NW,326,1.0,3.0,-999,-99.99,,,-99.99,,2013-02-15 04:22:00,
2013-02-14 20:32:00,48.0,-99.9,30.56,ESE,120,1.0,3.0,-999,-99.99,,,-99.99,,2013-02-15 04:32:00,
2013-02-14 20:42:00,48.0,-99.9,30.56,SSE,157,1.0,1.0,-999,-99.99,,,-99.99,,2013-02-15 04:42:00,
2013-02-14 20:52:00,48.0,-99.9,30.56,SSW,194,0.0,2.0,-999,-99.99,,,-99.99,,2013-02-15 04:52:00,
2013-02-14 21:02:00,47.0,-99.9,30.56,SSW,204,3.0,3.0,-999,-99.99,,,-99.99,,2013-02-15 05:02:00,
2013-02-14 21:12:00,47.0,-99.9,30.56,SSW,211,3.0,3.0,-999,-99.99,,,-99.99,,2013-02-15 05:12:00,
2013-02-14 21:22:00,47.0,-99.9,30.56,SW,236,2.0,4.0,-999,-99.99,,,-99.99,,2013-02-15 05:22:00,
2013-02-14 21:33:00,47.0,-99.9,30.56,South,185,2.0,4.0,-999,-99.99,,,-99.99,,2013-02-15 05:33:00,
2013-02-14 21:42:00,47.0,-99.9,30.56,SSW,201,2.0,3.0,-999,-99.99,,,-99.99,,2013-02-15 05:42:00,
2013-02-14 21:52:00,47.0,-99.9,30.56,SW,215,3.0,4.0,-999,-99.99,,,-99.99,,2013-02-15 05:52:00,
2013-02-14 22:02:00,48.0,-99.9,30.56,NNE,20,3.0,4.0,-999,-99.99,,,-99.99,,2013-02-15 06:02:00,
2013-02-14 22:11:00,48.0,-99.9,30.56,NW,323,1.0,4.0,-999,-99.99,,,-99.99,,2013-02-15 06:11:00,
2013-02-14 22:22:00,48.0,-99.9,30.56,ESE,106,-999.0,3.0,-999,-99.99,,,-99.99,,2013-02-15 06:22:00,
2013-02-14 22:32:00,48.0,-99.9,30.55,North,358,1.0,2.0,-999,-99.99,,,-99.99,,2013-02-15 06:32:00,
2013-02-14 22:42:00,48.0,-99.9,30.55,North,351,2.0,4.0,-999,-99.99,,,-99.99,,2013-02-15 06:42:00,
2013-02-14 22:52:00,48.0,-99.9,30.55,NW,307,1.0,3.0,-999,-99.99,,,-99.99,,2013-02-15 06:52:00,
2013-02-14 23:01:00,48.0,-99.9,30.55,NNW,337,1.0,3.0,-999,-99.99,,,-99.99,,2013-02-15 07:01:00,
2013-02-14 23:11:00,48.0,-99.9,30.55,WNW,293,0.0,2.0,-999,-99.99,,,-99.99,,2013-02-15 07:11:00,
2013-02-14 23:21:00,48.0,-99.9,30.55,South,187,1.0,1.0,-999,-99.99,,,-99.99,,2013-02-15 07:21:00,
2013-02-14 23:32:00,48.0,-99.9,30.55,West,279,2.0,2.0,-999,-99.99,,,-99.99,,2013-02-15 07:32:00,
2013-02-14 23:42:00,48.0,-99.9,30.55,NW,311,2.0,3.0,-999,-99.99,,,-99.99,,2013-02-15 07:42:00,
2013-02-14 23:52:00,47.0,-99.9,30.55,NW,307,6.0,7.0,-999,-99.99,,,-99.99,,2013-02-15 07:52:00,